| time (UTC) | temp F | wind direction | speed MPH | gust MPH | rain 1hr in | rain 24hr in | rain mn in | humidity % | barometer mb |
| 20260509205102 | 40 | 248 | 0.0 | 0.0 | 0.00 | 0.00 | 0.00 | 51 | 1025.5 |
| 20260509204412 | 40 | 248 | 0.0 | 0.0 | 0.00 | 0.00 | 0.00 | 51 | 1025.4 |
| 20260509203711 | 40 | 248 | 0.0 | 0.0 | 0.00 | 0.00 | 0.00 | 50 | 1025.5 |
| 20260509203010 | 40 | 248 | 0.0 | 0.0 | 0.00 | 0.00 | 0.00 | 49 | 1025.5 |
| 20260509202307 | 40 | 248 | 0.0 | 0.0 | 0.00 | 0.00 | 0.00 | 48 | 1025.6 |
| 20260509201604 | 41 | 248 | 0.0 | 0.0 | 0.00 | 0.00 | 0.00 | 48 | 1025.6 |
| 20260509200900 | 41 | 248 | 0.0 | 0.0 | 0.00 | 0.00 | 0.00 | 48 | 1025.7 |
| 20260509200211 | 41 | 248 | 0.0 | 0.0 | 0.00 | 0.00 | 0.00 | 48 | 1025.7 |
| 20260509195509 | 42 | 248 | 0.0 | 0.0 | 0.00 | 0.00 | 0.00 | 47 | 1025.8 |
| 20260509194805 | 42 | 248 | 0.0 | 0.0 | 0.00 | 0.00 | 0.00 | 47 | 1025.8 |
| 20260509194103 | 42 | 248 | 0.0 | 0.0 | 0.00 | 0.00 | 0.00 | 47 | 1025.8 |
| 20260509193412 | 42 | 248 | 0.0 | 0.0 | 0.00 | 0.00 | 0.00 | 46 | 1025.9 |
| 20260509192711 | 43 | 248 | 0.0 | 0.0 | 0.00 | 0.00 | 0.00 | 46 | 1025.9 |
| 20260509192009 | 43 | 248 | 0.0 | 0.0 | 0.00 | 0.00 | 0.00 | 46 | 1025.9 |
| 20260509191306 | 44 | 248 | 0.0 | 0.0 | 0.00 | 0.00 | 0.00 | 46 | 1025.8 |
| 20260509190604 | 44 | 248 | 0.0 | 0.0 | 0.00 | 0.00 | 0.00 | 45 | 1025.8 |
| 20260509185901 | 45 | 248 | 0.0 | 0.0 | 0.00 | 0.00 | 0.00 | 45 | 1026.0 |
| 20260509185212 | 45 | 248 | 0.0 | 0.0 | 0.00 | 0.00 | 0.00 | 44 | 1025.9 |
| 20260509184509 | 46 | 248 | 0.0 | 0.0 | 0.00 | 0.00 | 0.00 | 44 | 1026.0 |
| 20260509183807 | 46 | 255 | 0.0 | 1.0 | 0.00 | 0.00 | 0.00 | 44 | 1026.1 |
| 20260509183106 | 46 | 248 | 0.0 | 1.0 | 0.00 | 0.00 | 0.00 | 43 | 1026.1 |
| 20260509182405 | 47 | 248 | 0.0 | 0.0 | 0.00 | 0.00 | 0.00 | 43 | 1026.1 |
| 20260509181702 | 48 | 248 | 0.0 | 0.0 | 0.00 | 0.00 | 0.00 | 42 | 1026.1 |
| 20260509181012 | 49 | 248 | 0.0 | 1.0 | 0.00 | 0.00 | 0.00 | 42 | 1026.0 |
| 20260509180309 | 49 | 248 | 0.0 | 0.0 | 0.00 | 0.00 | 0.00 | 41 | 1026.0 |
| 20260509175607 | 50 | 248 | 0.0 | 2.0 | 0.00 | 0.00 | 0.00 | 40 | 1026.0 |
| 20260509174905 | 50 | 248 | 0.0 | 0.0 | 0.00 | 0.00 | 0.00 | 40 | 1026.0 |
| 20260509174202 | 51 | 343 | 1.0 | 3.0 | 0.00 | 0.00 | 0.00 | 40 | 1025.8 |
| 20260509173511 | 51 | 19 | 2.0 | 2.0 | 0.00 | 0.00 | 0.00 | 40 | 1025.8 |
| 20260509172808 | 52 | 248 | 1.0 | 3.0 | 0.00 | 0.00 | 0.00 | 39 | 1025.8 |
| 20260509172106 | 52 | 260 | 2.0 | 3.0 | 0.00 | 0.00 | 0.00 | 39 | 1025.7 |
| 20260509171404 | 52 | 263 | 1.0 | 1.0 | 0.00 | 0.00 | 0.00 | 39 | 1025.8 |
| 20260509170701 | 53 | 262 | 2.0 | 8.0 | 0.00 | 0.00 | 0.00 | 39 | 1025.7 |
| 20260509170011 | 53 | 263 | 1.0 | 3.0 | 0.00 | 0.00 | 0.00 | 39 | 1025.9 |
| 20260509165308 | 53 | 281 | 2.0 | 13.0 | 0.00 | 0.00 | 0.00 | 38 | 1025.8 |
| 20260509164607 | 54 | 269 | 2.0 | 7.0 | 0.00 | 0.00 | 0.00 | 38 | 1025.7 |
| 20260509163905 | 54 | 329 | 3.0 | 9.0 | 0.00 | 0.00 | 0.00 | 38 | 1025.8 |
| 20260509163202 | 55 | 269 | 3.0 | 5.0 | 0.00 | 0.00 | 0.00 | 38 | 1025.8 |
| 20260509162511 | 55 | 249 | 0.0 | 1.0 | 0.00 | 0.00 | 0.00 | 38 | 1025.8 |
| 20260509161808 | 55 | 0 | 1.0 | 3.0 | 0.00 | 0.00 | 0.00 | 38 | 1025.9 |
| 20260509161106 | 56 | 277 | 2.0 | 3.0 | 0.00 | 0.00 | 0.00 | 37 | 1025.9 |
| 20260509160404 | 56 | 289 | 1.0 | 1.0 | 0.00 | 0.00 | 0.00 | 37 | 1025.8 |
| 20260509155701 | 57 | 353 | 1.0 | 3.0 | 0.00 | 0.00 | 0.00 | 37 | 1025.9 |
| 20260509155010 | 58 | 18 | 2.0 | 7.0 | 0.00 | 0.00 | 0.00 | 36 | 1025.9 |
| 20260509154308 | 58 | 249 | 1.0 | 2.0 | 0.00 | 0.00 | 0.00 | 35 | 1026.0 |
| 20260509153605 | 58 | 343 | 5.0 | 7.0 | 0.00 | 0.00 | 0.00 | 33 | 1026.0 |
| 20260509152904 | 58 | 287 | 2.0 | 6.0 | 0.00 | 0.00 | 0.00 | 33 | 1026.1 |
| 20260509152202 | 59 | 242 | 2.0 | 3.0 | 0.00 | 0.00 | 0.00 | 33 | 1026.2 |
| 20260509151502 | 59 | 245 | 2.0 | 2.0 | 0.00 | 0.00 | 0.00 | 33 | 1026.2 |
| 20260509150811 | 60 | 288 | 3.0 | 6.0 | 0.00 | 0.00 | 0.00 | 32 | 1026.3 |
| 20260509150107 | 61 | 254 | 2.0 | 3.0 | 0.00 | 0.00 | 0.00 | 32 | 1026.4 |
| 20260509145405 | 62 | 338 | 3.0 | 6.0 | 0.00 | 0.00 | 0.00 | 32 | 1026.3 |
| 20260509144703 | 62 | 248 | 1.0 | 2.0 | 0.00 | 0.00 | 0.00 | 31 | 1026.5 |
| 20260509144003 | 62 | 243 | 1.0 | 5.0 | 0.00 | 0.00 | 0.00 | 31 | 1026.6 |
| 20260509143301 | 63 | 269 | 2.0 | 7.0 | 0.00 | 0.00 | 0.00 | 31 | 1026.6 |
| 20260509142612 | 62 | 262 | 3.0 | 5.0 | 0.00 | 0.00 | 0.00 | 31 | 1026.6 |
| 20260509141910 | 62 | 271 | 3.0 | 6.0 | 0.00 | 0.00 | 0.00 | 31 | 1026.8 |
| 20260509141208 | 64 | 268 | 2.0 | 5.0 | 0.00 | 0.00 | 0.00 | 30 | 1026.7 |
| 20260509140507 | 64 | 352 | 2.0 | 5.0 | 0.00 | 0.00 | 0.00 | 30 | 1026.9 |
| 20260509135805 | 64 | 319 | 3.0 | 5.0 | 0.00 | 0.00 | 0.00 | 30 | 1026.9 |
| 20260509135101 | 63 | 253 | 2.0 | 6.0 | 0.00 | 0.00 | 0.00 | 31 | 1027.0 |
| 20260509134412 | 63 | 252 | 3.0 | 8.0 | 0.00 | 0.00 | 0.00 | 31 | 1027.0 |
| 20260509133709 | 63 | 244 | 0.0 | 2.0 | 0.00 | 0.00 | 0.00 | 31 | 1027.0 |
| 20260509133007 | 63 | 319 | 2.0 | 2.0 | 0.00 | 0.00 | 0.00 | 31 | 1027.2 |
| 20260509132306 | 62 | 292 | 1.0 | 1.0 | 0.00 | 0.00 | 0.00 | 31 | 1027.3 |
| 20260509131602 | 61 | 248 | 1.0 | 7.0 | 0.00 | 0.00 | 0.00 | 31 | 1027.3 |
| 20260509130912 | 63 | 307 | 3.0 | 9.0 | 0.00 | 0.00 | 0.00 | 29 | 1027.3 |
| 20260509130210 | 65 | 257 | 5.0 | 6.0 | 0.00 | 0.00 | 0.00 | 28 | 1027.4 |
| 20260509125508 | 67 | 264 | 2.0 | 3.0 | 0.00 | 0.00 | 0.00 | 27 | 1027.4 |
| 20260509124806 | 71 | 282 | 2.0 | 3.0 | 0.00 | 0.00 | 0.00 | 26 | 1027.7 |
| 20260509124104 | 73 | 256 | 1.0 | 2.0 | 0.00 | 0.00 | 0.00 | 27 | 1027.7 |
| 20260509123402 | 73 | 251 | 1.0 | 7.0 | 0.00 | 0.00 | 0.00 | 27 | 1027.7 |
| 20260509122712 | 72 | 352 | 2.0 | 9.0 | 0.00 | 0.00 | 0.00 | 27 | 1027.7 |
| 20260509122010 | 71 | 250 | 3.0 | 6.0 | 0.00 | 0.00 | 0.00 | 28 | 1027.9 |
| 20260509121309 | 68 | 248 | 3.0 | 6.0 | 0.00 | 0.00 | 0.00 | 29 | 1027.9 |
| 20260509120606 | 67 | 282 | 6.0 | 10.0 | 0.00 | 0.00 | 0.00 | 27 | 1028.0 |
| 20260509115904 | 68 | 269 | 5.0 | 7.0 | 0.00 | 0.00 | 0.00 | 27 | 1028.1 |
| 20260509115202 | 70 | 332 | 8.0 | 10.0 | 0.00 | 0.00 | 0.00 | 26 | 1028.2 |
| 20260509114511 | 69 | 239 | 1.0 | 2.0 | 0.00 | 0.00 | 0.00 | 27 | 1028.2 |
| 20260509113809 | 70 | 356 | 5.0 | 9.0 | 0.00 | 0.00 | 0.00 | 26 | 1028.2 |
| 20260509113106 | 71 | 358 | 2.0 | 6.0 | 0.00 | 0.00 | 0.00 | 26 | 1028.2 |
| 20260509112403 | 69 | 248 | 2.0 | 6.0 | 0.00 | 0.00 | 0.00 | 27 | 1028.5 |
| 20260509111702 | 69 | 329 | 6.0 | 12.0 | 0.00 | 0.00 | 0.00 | 27 | 1028.5 |
| 20260509111001 | 69 | 265 | 5.0 | 9.0 | 0.00 | 0.00 | 0.00 | 27 | 1028.6 |
| 20260509110311 | 68 | 269 | 3.0 | 6.0 | 0.00 | 0.00 | 0.00 | 27 | 1028.6 |
| 20260509105609 | 70 | 259 | 1.0 | 8.0 | 0.00 | 0.00 | 0.00 | 29 | 1028.7 |
| 20260509104907 | 68 | 273 | 2.0 | 6.0 | 0.00 | 0.00 | 0.00 | 28 | 1028.8 |
| 20260509104205 | 66 | 262 | 0.0 | 3.0 | 0.00 | 0.00 | 0.00 | 30 | 1028.9 |
| 20260509103503 | 64 | 249 | 5.0 | 7.0 | 0.00 | 0.00 | 0.00 | 30 | 1028.9 |
| 20260509102802 | 64 | 317 | 3.0 | 6.0 | 0.00 | 0.00 | 0.00 | 30 | 1029.0 |
| 20260509102101 | 64 | 325 | 3.0 | 3.0 | 0.00 | 0.00 | 0.00 | 29 | 1029.1 |
| 20260509101412 | 64 | 279 | 5.0 | 7.0 | 0.00 | 0.00 | 0.00 | 31 | 1029.3 |
| 20260509100710 | 64 | 248 | 5.0 | 5.0 | 0.00 | 0.00 | 0.00 | 31 | 1029.3 |
| 20260509100007 | 63 | 0 | 3.0 | 6.0 | 0.00 | 0.00 | 0.00 | 31 | 1029.4 |
| 20260509095306 | 64 | 248 | 2.0 | 3.0 | 0.00 | 0.00 | 0.00 | 31 | 1029.4 |
| 20260509094604 | 64 | 348 | 5.0 | 8.0 | 0.00 | 0.00 | 0.00 | 30 | 1029.4 |
| 20260509093912 | 64 | 258 | 1.0 | 2.0 | 0.00 | 0.00 | 0.00 | 31 | 1029.5 |
| 20260509093210 | 65 | 249 | 3.0 | 5.0 | 0.00 | 0.00 | 0.00 | 31 | 1029.5 |
| 20260509092508 | 64 | 248 | 2.0 | 2.0 | 0.00 | 0.00 | 0.00 | 32 | 1029.6 |
| 20260509091805 | 63 | 311 | 3.0 | 8.0 | 0.00 | 0.00 | 0.00 | 31 | 1029.7 |
| 20260509091103 | 63 | 248 | 5.0 | 5.0 | 0.00 | 0.00 | 0.00 | 29 | 1029.7 |
| 20260509090401 | 65 | 255 | 6.0 | 6.0 | 0.00 | 0.00 | 0.00 | 31 | 1029.7 |
| 20260509085711 | 64 | 325 | 3.0 | 3.0 | 0.00 | 0.00 | 0.00 | 32 | 1029.6 |
| 20260509085008 | 63 | 248 | 3.0 | 5.0 | 0.00 | 0.00 | 0.00 | 32 | 1029.8 |
| 20260509084307 | 63 | 286 | 2.0 | 5.0 | 0.00 | 0.00 | 0.00 | 32 | 1029.8 |
| 20260509083606 | 63 | 300 | 3.0 | 10.0 | 0.00 | 0.00 | 0.00 | 31 | 1029.8 |
| 20260509082903 | 64 | 290 | 5.0 | 5.0 | 0.00 | 0.00 | 0.00 | 31 | 1030.2 |
| 20260509082201 | 66 | 267 | 6.0 | 8.0 | 0.00 | 0.00 | 0.00 | 30 | 1030.2 |
| 20260509081511 | 66 | 253 | 3.0 | 3.0 | 0.00 | 0.00 | 0.00 | 30 | 1030.0 |
| 20260509080808 | 66 | 299 | 6.0 | 7.0 | 0.00 | 0.00 | 0.00 | 30 | 1030.3 |
| 20260509080106 | 66 | 335 | 5.0 | 6.0 | 0.00 | 0.00 | 0.00 | 31 | 1030.3 |
| 20260509075403 | 66 | 255 | 2.0 | 5.0 | 0.00 | 0.00 | 0.00 | 31 | 1030.1 |
| 20260509074701 | 65 | 4 | 2.0 | 5.0 | 0.00 | 0.00 | 0.00 | 31 | 1030.3 |
| 20260509074011 | 66 | 248 | 1.0 | 2.0 | 0.00 | 0.00 | 0.00 | 32 | 1030.2 |
| 20260509073308 | 65 | 248 | 2.0 | 3.0 | 0.00 | 0.00 | 0.00 | 32 | 1030.3 |
| 20260509072607 | 65 | 315 | 1.0 | 3.0 | 0.00 | 0.00 | 0.00 | 33 | 1030.4 |
| 20260509071903 | 64 | 248 | 3.0 | 3.0 | 0.00 | 0.00 | 0.00 | 32 | 1030.4 |
| 20260509071201 | 64 | 39 | 2.0 | 3.0 | 0.00 | 0.00 | 0.00 | 34 | 1030.4 |
| 20260509070511 | 62 | 297 | 2.0 | 7.0 | 0.00 | 0.00 | 0.00 | 33 | 1030.5 |
| 20260509065808 | 62 | 333 | 3.0 | 3.0 | 0.00 | 0.00 | 0.00 | 33 | 1030.4 |
| 20260509065105 | 62 | 306 | 5.0 | 7.0 | 0.00 | 0.00 | 0.00 | 35 | 1030.4 |
| 20260509064402 | 62 | 248 | 3.0 | 5.0 | 0.00 | 0.00 | 0.00 | 35 | 1030.5 |
| 20260509063712 | 62 | 301 | 2.0 | 3.0 | 0.00 | 0.00 | 0.00 | 36 | 1030.6 |
| 20260509063010 | 62 | 248 | 2.0 | 3.0 | 0.00 | 0.00 | 0.00 | 36 | 1030.6 |
| 20260509062309 | 62 | 266 | 2.0 | 5.0 | 0.00 | 0.00 | 0.00 | 36 | 1030.6 |
| 20260509061606 | 61 | 248 | 1.0 | 3.0 | 0.00 | 0.00 | 0.00 | 40 | 1030.6 |
| 20260509060903 | 60 | 248 | 1.0 | 2.0 | 0.00 | 0.00 | 0.00 | 41 | 1030.7 |
| 20260509060203 | 58 | 248 | 3.0 | 3.0 | 0.00 | 0.00 | 0.00 | 42 | 1030.7 |
| 20260509055513 | 58 | 248 | 3.0 | 3.0 | 0.00 | 0.00 | 0.00 | 44 | 1030.7 |
| 20260509054809 | 56 | 248 | 1.0 | 3.0 | 0.00 | 0.00 | 0.00 | 46 | 1030.7 |
| 20260509054107 | 55 | 248 | 3.0 | 5.0 | 0.00 | 0.00 | 0.00 | 47 | 1030.6 |
| 20260509053403 | 53 | 248 | 1.0 | 2.0 | 0.00 | 0.00 | 0.00 | 51 | 1030.5 |
| 20260509052701 | 52 | 248 | 1.0 | 2.0 | 0.00 | 0.00 | 0.00 | 52 | 1030.5 |
| 20260509052011 | 51 | 248 | 1.0 | 1.0 | 0.00 | 0.00 | 0.00 | 53 | 1030.5 |
| 20260509051308 | 51 | 248 | 2.0 | 2.0 | 0.00 | 0.00 | 0.00 | 55 | 1030.6 |
| 20260509050607 | 50 | 252 | 1.0 | 2.0 | 0.00 | 0.00 | 0.00 | 57 | 1030.5 |
| 20260509045905 | 49 | 284 | 1.0 | 2.0 | 0.00 | 0.00 | 0.00 | 59 | 1030.6 |
| 20260509045202 | 48 | 248 | 1.0 | 2.0 | 0.00 | 0.00 | 0.00 | 62 | 1030.6 |
| 20260509044501 | 47 | 248 | 0.0 | 1.0 | 0.00 | 0.00 | 0.00 | 67 | 1030.6 |
| 20260509043810 | 45 | 248 | 0.0 | 0.0 | 0.00 | 0.00 | 0.00 | 69 | 1030.6 |
| 20260509043109 | 44 | 248 | 0.0 | 0.0 | 0.00 | 0.00 | 0.00 | 69 | 1030.6 |
| 20260509042407 | 44 | 248 | 0.0 | 0.0 | 0.00 | 0.00 | 0.00 | 71 | 1030.6 |
| 20260509041707 | 43 | 248 | 0.0 | 0.0 | 0.00 | 0.00 | 0.00 | 73 | 1030.5 |
| 20260509041006 | 42 | 248 | 0.0 | 0.0 | 0.00 | 0.00 | 0.00 | 74 | 1030.5 |
| 20260509040303 | 41 | 248 | 0.0 | 0.0 | 0.00 | 0.00 | 0.00 | 76 | 1030.5 |
| 20260509035601 | 40 | 248 | 0.0 | 0.0 | 0.00 | 0.00 | 0.00 | 77 | 1030.4 |
| 20260509034911 | 39 | 248 | 0.0 | 0.0 | 0.00 | 0.00 | 0.00 | 78 | 1030.4 |
| 20260509034210 | 38 | 248 | 0.0 | 0.0 | 0.00 | 0.00 | 0.00 | 79 | 1030.4 |
| 20260509033508 | 38 | 248 | 0.0 | 0.0 | 0.00 | 0.00 | 0.00 | 80 | 1030.5 |
| 20260509032805 | 36 | 248 | 0.0 | 0.0 | 0.00 | 0.00 | 0.00 | 81 | 1030.3 |
| 20260509032104 | 35 | 248 | 0.0 | 0.0 | 0.00 | 0.00 | 0.00 | 82 | 1030.3 |
| 20260509031403 | 34 | 248 | 0.0 | 0.0 | 0.00 | 0.00 | 0.00 | 82 | 1030.3 |
| 20260509030702 | 33 | 248 | 0.0 | 0.0 | 0.00 | 0.00 | 0.00 | 82 | 1030.3 |
| 20260509030001 | 32 | 248 | 0.0 | 0.0 | 0.00 | 0.00 | 0.00 | 81 | 1030.3 |
| 20260509025309 | 31 | 248 | 0.0 | 0.0 | 0.00 | 0.00 | 0.00 | 80 | 1030.3 |
| 20260509024607 | 31 | 248 | 0.0 | 0.0 | 0.00 | 0.00 | 0.00 | 79 | 1030.3 |
| 20260509023905 | 31 | 248 | 0.0 | 0.0 | 0.00 | 0.00 | 0.00 | 78 | 1030.3 |
| 20260509023202 | 32 | 248 | 0.0 | 0.0 | 0.00 | 0.00 | 0.00 | 79 | 1030.2 |
| 20260509022512 | 32 | 248 | 0.0 | 0.0 | 0.00 | 0.00 | 0.00 | 79 | 1030.3 |
| 20260509021811 | 32 | 248 | 0.0 | 0.0 | 0.00 | 0.00 | 0.00 | 78 | 1030.2 |
| 20260509021108 | 32 | 248 | 0.0 | 0.0 | 0.00 | 0.00 | 0.00 | 77 | 1030.1 |
| 20260509020406 | 32 | 248 | 0.0 | 0.0 | 0.00 | 0.00 | 0.00 | 76 | 1029.9 |
| 20260509015702 | 32 | 248 | 0.0 | 0.0 | 0.00 | 0.00 | 0.00 | 74 | 1029.8 |
| 20260509015012 | 32 | 248 | 0.0 | 0.0 | 0.00 | 0.00 | 0.00 | 73 | 1030.0 |
| 20260509014310 | 33 | 248 | 0.0 | 0.0 | 0.00 | 0.00 | 0.00 | 72 | 1029.9 |
| 20260509013608 | 33 | 248 | 0.0 | 0.0 | 0.00 | 0.00 | 0.00 | 71 | 1029.8 |
| 20260509012907 | 33 | 248 | 0.0 | 0.0 | 0.00 | 0.00 | 0.00 | 71 | 1029.9 |
| 20260509012204 | 34 | 248 | 0.0 | 0.0 | 0.00 | 0.00 | 0.00 | 70 | 1030.0 |
| 20260509011502 | 34 | 248 | 0.0 | 0.0 | 0.00 | 0.00 | 0.00 | 69 | 1030.0 |
| 20260509010812 | 34 | 248 | 0.0 | 0.0 | 0.00 | 0.00 | 0.00 | 69 | 1029.9 |
| 20260509010110 | 35 | 248 | 0.0 | 0.0 | 0.00 | 0.00 | 0.00 | 68 | 1030.0 |
| 20260509005407 | 35 | 248 | 0.0 | 0.0 | 0.00 | 0.00 | 0.00 | 69 | 1029.9 |
| 20260509004705 | 35 | 248 | 0.0 | 0.0 | 0.00 | 0.00 | 0.00 | 69 | 1029.8 |
| 20260509004004 | 35 | 248 | 0.0 | 0.0 | 0.00 | 0.00 | 0.00 | 70 | 1029.7 |
| 20260509003301 | 35 | 248 | 0.0 | 0.0 | 0.00 | 0.00 | 0.00 | 71 | 1029.7 |
| 20260509002611 | 35 | 248 | 0.0 | 0.0 | 0.00 | 0.00 | 0.00 | 72 | 1029.6 |
| 20260509001910 | 35 | 248 | 0.0 | 0.0 | 0.00 | 0.00 | 0.00 | 72 | 1029.6 |
| 20260509001207 | 35 | 248 | 0.0 | 0.0 | 0.00 | 0.00 | 0.00 | 72 | 1029.5 |
| 20260509000506 | 35 | 248 | 0.0 | 0.0 | 0.00 | 0.00 | 0.00 | 71 | 1029.6 |
| 20260508235805 | 35 | 248 | 0.0 | 0.0 | 0.00 | 0.00 | 0.00 | 71 | 1029.6 |
| 20260508235102 | 35 | 248 | 0.0 | 0.0 | 0.00 | 0.00 | 0.00 | 71 | 1029.5 |
| 20260508234412 | 35 | 248 | 0.0 | 0.0 | 0.00 | 0.00 | 0.00 | 69 | 1029.6 |
| 20260508233710 | 36 | 248 | 0.0 | 0.0 | 0.00 | 0.00 | 0.00 | 68 | 1029.6 |
| 20260508233009 | 36 | 248 | 0.0 | 0.0 | 0.00 | 0.00 | 0.00 | 66 | 1029.6 |
| 20260508232307 | 36 | 248 | 0.0 | 0.0 | 0.00 | 0.00 | 0.00 | 66 | 1029.5 |
| 20260508231605 | 37 | 248 | 0.0 | 0.0 | 0.00 | 0.00 | 0.00 | 65 | 1029.4 |
| 20260508230903 | 37 | 248 | 0.0 | 1.0 | 0.00 | 0.00 | 0.00 | 63 | 1029.4 |
| 20260508230213 | 37 | 248 | 0.0 | 0.0 | 0.00 | 0.00 | 0.00 | 62 | 1029.3 |
| 20260508225510 | 38 | 248 | 0.0 | 0.0 | 0.00 | 0.00 | 0.00 | 61 | 1029.3 |
| 20260508224808 | 38 | 248 | 1.0 | 1.0 | 0.00 | 0.00 | 0.00 | 61 | 1029.3 |
| 20260508224105 | 38 | 248 | 0.0 | 2.0 | 0.00 | 0.00 | 0.00 | 59 | 1029.3 |
| 20260508223403 | 38 | 248 | 0.0 | 1.0 | 0.00 | 0.00 | 0.00 | 57 | 1029.4 |
| 20260508222702 | 39 | 248 | 0.0 | 0.0 | 0.00 | 0.00 | 0.00 | 56 | 1029.4 |
| 20260508222011 | 40 | 248 | 0.0 | 0.0 | 0.00 | 0.00 | 0.00 | 54 | 1029.2 |
| 20260508221309 | 41 | 248 | 0.0 | 1.0 | 0.00 | 0.00 | 0.00 | 54 | 1029.3 |
| 20260508220607 | 41 | 280 | 1.0 | 3.0 | 0.00 | 0.00 | 0.00 | 54 | 1029.2 |
| 20260508215906 | 41 | 295 | 2.0 | 2.0 | 0.00 | 0.00 | 0.00 | 54 | 1029.1 |
| 20260508215205 | 41 | 248 | 0.0 | 1.0 | 0.00 | 0.00 | 0.00 | 54 | 1029.1 |
| 20260508214502 | 41 | 248 | 0.0 | 1.0 | 0.00 | 0.00 | 0.00 | 53 | 1029.1 |
| 20260508213812 | 42 | 344 | 0.0 | 2.0 | 0.00 | 0.00 | 0.00 | 52 | 1029.0 |
| 20260508213110 | 41 | 248 | 0.0 | 1.0 | 0.00 | 0.00 | 0.00 | 53 | 1029.0 |
| 20260508212408 | 41 | 248 | 0.0 | 0.0 | 0.00 | 0.00 | 0.00 | 53 | 1028.9 |
| 20260508211707 | 41 | 248 | 0.0 | 0.0 | 0.00 | 0.00 | 0.00 | 54 | 1029.1 |
| 20260508211006 | 41 | 248 | 0.0 | 1.0 | 0.00 | 0.00 | 0.00 | 54 | 1029.0 |
| 20260508210303 | 40 | 248 | 0.0 | 0.0 | 0.00 | 0.00 | 0.00 | 53 | 1029.1 |
| 20260508205602 | 40 | 248 | 0.0 | 0.0 | 0.00 | 0.00 | 0.00 | 50 | 1029.1 |